TimeCST,TemperatureF,Dew PointF,Humidity,Sea Level PressureIn,VisibilityMPH,Wind Direction,Wind SpeedMPH,Gust SpeedMPH,PrecipitationIn,Events,Conditions,WindDirDegrees,DateUTC
12:54 AM,35.1,27.0,72,30.32,10.0,South,11.5,-,N/A,,Clear,170,2013-11-30 06:54:00
1:54 AM,33.1,27.0,78,30.31,10.0,SSE,9.2,-,N/A,,Clear,160,2013-11-30 07:54:00
2:54 AM,33.1,27.0,78,30.30,10.0,SSE,10.4,-,N/A,,Clear,160,2013-11-30 08:54:00
3:54 AM,33.1,27.0,78,30.29,10.0,SSE,11.5,-,N/A,,Clear,160,2013-11-30 09:54:00
4:54 AM,33.1,27.0,78,30.27,10.0,SSE,11.5,-,N/A,,Clear,160,2013-11-30 10:54:00
5:54 AM,32.0,27.0,82,30.25,10.0,SSE,9.2,-,N/A,,Clear,160,2013-11-30 11:54:00
6:54 AM,32.0,27.0,82,30.26,10.0,SSE,9.2,-,N/A,,Clear,160,2013-11-30 12:54:00
7:54 AM,35.1,28.0,76,30.25,10.0,SSE,9.2,-,N/A,,Clear,160,2013-11-30 13:54:00
8:54 AM,39.9,30.0,68,30.24,10.0,South,10.4,-,N/A,,Clear,170,2013-11-30 14:54:00
9:54 AM,45.0,30.9,58,30.24,10.0,SSW,10.4,-,N/A,,Clear,200,2013-11-30 15:54:00
10:54 AM,50.0,33.1,52,30.21,10.0,SW,12.7,-,N/A,,Clear,220,2013-11-30 16:54:00
11:54 AM,53.1,35.1,50,30.17,10.0,SW,13.8,-,N/A,,Clear,220,2013-11-30 17:54:00
12:54 PM,55.0,36.0,49,30.13,10.0,SW,11.5,-,N/A,,Clear,220,2013-11-30 18:54:00
1:54 PM,57.0,37.0,47,30.12,10.0,SW,11.5,-,N/A,,Clear,230,2013-11-30 19:54:00
2:54 PM,57.0,37.0,47,30.10,10.0,WSW,9.2,-,N/A,,Clear,240,2013-11-30 20:54:00
3:54 PM,55.9,37.9,51,30.09,10.0,SW,9.2,-,N/A,,Clear,230,2013-11-30 21:54:00
4:54 PM,52.0,37.0,57,30.10,10.0,WSW,5.8,-,N/A,,Clear,250,2013-11-30 22:54:00
5:54 PM,48.9,37.0,64,30.12,10.0,WNW,4.6,-,N/A,,Clear,300,2013-11-30 23:54:00
6:54 PM,48.0,37.0,66,30.13,10.0,NW,4.6,-,N/A,,Clear,320,2013-12-01 00:54:00
7:54 PM,46.0,37.0,71,30.12,8.0,NW,5.8,-,N/A,,Clear,310,2013-12-01 01:54:00
8:54 PM,46.0,37.0,71,30.12,10.0,West,3.5,-,N/A,,Clear,280,2013-12-01 02:54:00
9:54 PM,44.1,37.0,76,30.12,10.0,West,4.6,-,N/A,,Clear,260,2013-12-01 03:54:00
10:54 PM,41.0,36.0,82,30.13,10.0,SW,4.6,-,N/A,,Clear,230,2013-12-01 04:54:00
11:54 PM,39.0,35.1,86,30.13,10.0,SW,5.8,-,N/A,,Clear,230,2013-12-01 05:54:00